CW2101 Weather Reports


time (UTC)temp
C
wind
direction
speed
KPH
gust
KPH
rain 1hr
cm
rain 24hr
cm
rain mn
cm
humidity
%
barometer
mb
20260906003601 26 6 8.0 16.1 0.00 0.00 0.00 81 985.0
20260906003101 26 359 4.8 19.3 0.00 0.00 0.00 81 985.0
20260906002601 27 1 8.0 16.1 0.00 0.00 0.00 81 984.9
20260906002101 27 358 4.8 14.5 0.00 0.00 0.00 80 984.7
20260906001601 27 29 8.0 22.5 0.00 0.00 0.00 80 984.6
20260906001101 27 16 8.0 19.3 0.00 0.00 0.00 79 984.5
20260906000601 27 7 9.7 19.3 0.00 0.00 0.00 79 984.4
20260905235601 28 359 8.0 19.3 0.00 0.00 0.00 79 984.2
20260905235101 28 0 8.0 19.3 0.00 0.00 0.00 78 984.0
20260905234601 28 27 8.0 19.3 0.00 0.00 0.00 78 983.9
20260905234101 29 355 8.0 19.3 0.00 0.00 0.00 77 983.8
20260905233601 30 11 8.0 19.3 0.00 0.00 0.00 76 983.6
20260905232101 31 352 9.7 19.3 0.00 0.00 0.00 71 982.8
20260905231601 31 332 9.7 16.1 0.00 0.00 0.00 69 982.5
20260905231101 31 333 9.7 19.3 0.00 0.00 0.00 69 982.4
20260905230601 31 348 9.7 22.5 0.00 0.00 0.00 68 982.4
20260905225602 31 309 8.0 19.3 0.00 0.00 0.00 67 982.3
20260905225101 31 331 8.0 16.1 0.00 0.00 0.00 68 982.1
20260905224602 31 320 9.7 20.9 0.00 0.00 0.00 68 982.0
20260905224101 31 314 9.7 24.1 0.00 0.00 0.00 67 982.0
20260905223601 32 333 11.3 24.1 0.00 0.00 0.00 67 982.0
20260905223101 32 315 8.0 22.5 0.00 0.00 0.00 66 982.0
20260905222102 32 328 8.0 20.9 0.00 0.00 0.00 66 982.0
20260905221602 32 325 9.7 20.9 0.00 0.00 0.00 66 981.9
20260905221101 32 336 9.7 22.5 0.00 0.00 0.00 66 981.9
20260905220602 32 319 11.3 24.1 0.00 0.00 0.00 65 981.8
20260905215602 32 306 12.9 22.5 0.00 0.00 0.00 67 981.8
20260905215101 32 296 8.0 20.9 0.00 0.00 0.00 67 981.7
20260905214602 32 295 6.4 16.1 0.00 0.00 0.00 67 981.6
20260905214101 32 300 11.3 19.3 0.00 0.00 0.00 66 981.7
20260905213601 32 303 9.7 22.5 0.00 0.00 0.00 66 981.4
20260905212601 32 337 3.2 11.3 0.00 0.00 0.00 67 981.5
20260905211601 32 292 8.0 16.1 0.00 0.00 0.00 67 981.5
20260905211101 32 280 8.0 12.9 0.00 0.00 0.00 69 981.8
20260905210602 32 321 6.4 16.1 0.00 0.00 0.00 69 981.8
20260905205601 32 308 8.0 16.1 0.00 0.00 0.00 67 981.6
20260905205101 32 323 4.8 14.5 0.00 0.00 0.00 67 981.3
20260905204602 32 315 4.8 12.9 0.00 0.00 0.00 68 981.6
20260905204102 32 290 4.8 19.3 0.00 0.00 0.00 70 981.9
20260905203101 32 298 4.8 12.9 0.00 0.00 0.00 71 981.8
20260905202102 31 301 4.8 11.3 0.00 0.00 0.00 74 982.0
20260905201602 31 279 6.4 11.3 0.00 0.00 0.00 74 982.3
20260905201102 31 298 4.8 12.9 0.00 0.00 0.00 75 982.2
20260905200604 31 289 4.8 11.3 0.00 0.00 0.00 74 982.2
20260905195602 32 269 3.2 16.1 0.00 0.00 0.00 75 982.2
20260905195102 32 291 8.0 14.5 0.00 0.00 0.00 69 981.9
20260905194602 33 285 8.0 16.1 0.00 0.00 0.00 65 981.4
20260905194102 33 316 6.4 14.5 0.00 0.00 0.00 65 981.4
20260905193602 33 323 4.8 11.3 0.00 0.00 0.00 67 981.5
20260905193102 32 267 3.2 11.3 0.00 0.00 0.00 67 981.7
20260905192102 33 294 4.8 11.3 0.00 0.00 0.00 66 981.6
20260905191102 33 255 4.8 11.3 0.00 0.00 0.00 64 981.9
20260905190601 33 316 6.4 19.3 0.00 0.00 0.00 65 982.1
20260905185602 33 217 3.2 11.3 0.00 0.00 0.00 65 981.7
20260905185102 33 308 8.0 16.1 0.00 0.00 0.00 63 981.9
20260905184601 33 284 8.0 14.5 0.00 0.00 0.00 62 981.8
20260905184102 33 288 9.7 14.5 0.00 0.00 0.00 62 981.9
20260905183602 33 268 6.4 12.9 0.00 0.00 0.00 63 981.8
20260905183102 32 292 6.4 12.9 0.00 0.00 0.00 64 981.9
20260905182602 32 281 3.2 12.9 0.00 0.00 0.00 65 982.1
20260905182102 32 254 4.8 11.3 0.00 0.00 0.00 66 982.3
20260905181601 32 280 8.0 14.5 0.00 0.00 0.00 65 982.3
20260905181101 32 305 9.7 16.1 0.00 0.00 0.00 64 982.2
20260905180602 33 281 6.4 14.5 0.00 0.00 0.00 65 982.1
20260905175602 33 290 4.8 14.5 0.00 0.00 0.00 65 982.1
20260905175102 33 301 4.8 20.9 0.00 0.00 0.00 65 982.2
20260905174602 33 337 8.0 20.9 0.00 0.00 0.00 65 982.3
20260905174102 33 304 4.8 12.9 0.00 0.00 0.00 63 982.2
20260905173602 33 290 6.4 16.1 0.00 0.00 0.00 64 982.2
20260905173102 33 297 4.8 12.9 0.00 0.00 0.00 64 982.2
20260905172601 33 303 8.0 19.3 0.00 0.00 0.00 62 982.1
20260905172102 33 291 8.0 12.9 0.00 0.00 0.00 62 982.1
20260905171602 32 298 11.3 27.4 0.00 0.00 0.00 62 982.1
20260905171102 32 275 9.7 16.1 0.00 0.00 0.00 62 982.3
20260905170602 32 302 8.0 16.1 0.00 0.00 0.00 63 982.4
20260905165602 32 321 4.8 16.1 0.00 0.00 0.00 64 982.5
20260905165102 32 297 8.0 19.3 0.00 0.00 0.00 63 982.3
20260905164602 32 284 9.7 16.1 0.00 0.00 0.00 63 982.4
20260905164102 32 244 3.2 12.9 0.00 0.00 0.00 64 982.5
20260905163602 32 292 8.0 14.5 0.00 0.00 0.00 62 982.6
20260905163102 32 301 8.0 14.5 0.00 0.00 0.00 62 982.7
20260905162602 32 267 4.8 19.3 0.00 0.00 0.00 64 982.6
20260905162103 32 311 6.4 14.5 0.00 0.00 0.00 64 982.7
20260905161603 32 273 8.0 14.5 0.00 0.00 0.00 65 982.7
20260905161102 32 266 6.4 12.9 0.00 0.00 0.00 66 982.7
20260905160602 32 270 4.8 12.9 0.00 0.00 0.00 66 982.6
20260905155603 32 267 6.4 14.5 0.00 0.00 0.00 65 982.9
20260905155103 32 275 8.0 14.5 0.00 0.00 0.00 67 982.9
20260905154602 31 283 3.2 9.7 0.00 0.00 0.00 68 982.9
20260905154103 31 234 6.4 14.5 0.00 0.00 0.00 68 982.9
20260905153602 31 243 4.8 14.5 0.00 0.00 0.00 69 983.0
20260905153102 31 277 4.8 12.9 0.00 0.00 0.00 70 983.0
20260905152602 31 232 4.8 11.3 0.00 0.00 0.00 70 983.1
20260905152103 31 266 4.8 12.9 0.00 0.00 0.00 72 983.1
20260905151602 30 242 4.8 12.9 0.00 0.00 0.00 72 983.1
20260905151102 30 214 8.0 16.1 0.00 0.00 0.00 72 983.2
20260905150602 30 240 8.0 14.5 0.00 0.00 0.00 72 983.2
20260905145602 30 238 8.0 16.1 0.00 0.00 0.00 73 983.2
20260905145102 30 247 6.4 14.5 0.00 0.00 0.00 73 983.2
20260905144604 30 253 4.8 12.9 0.00 0.00 0.00 74 983.2
20260905144103 30 230 8.0 16.1 0.00 0.00 0.00 74 983.4
20260905143102 29 272 4.8 14.5 0.00 0.00 0.00 75 983.6
20260905142602 29 232 3.2 14.5 0.00 0.00 0.00 75 983.7
20260905142102 29 219 8.0 12.9 0.00 0.00 0.00 75 983.8
20260905141603 28 247 4.8 11.3 0.00 0.00 0.00 77 984.0
20260905141102 28 223 6.4 14.5 0.00 0.00 0.00 78 984.1
20260905140603 28 231 8.0 12.9 0.00 0.00 0.00 78 984.2
20260905135603 28 225 8.0 12.9 0.00 0.00 0.00 78 984.3
20260905135102 28 217 8.0 11.3 0.00 0.00 0.00 78 984.3
20260905134102 28 249 3.2 4.8 0.00 0.00 0.00 79 984.2
20260905133602 28 230 3.2 11.3 0.00 0.00 0.00 80 984.4
20260905132603 27 224 3.2 9.7 0.00 0.00 0.00 82 984.7
20260905132102 27 221 6.4 12.9 0.00 0.00 0.00 81 984.8
20260905131602 27 221 8.0 12.9 0.00 0.00 0.00 82 984.9
20260905130602 27 227 4.8 9.7 0.00 0.00 0.00 83 985.0
20260905125603 27 227 4.8 12.9 0.00 0.00 0.00 81 984.8
20260905125103 27 217 3.2 11.3 0.00 0.00 0.00 81 984.8
20260905124602 26 213 4.8 8.0 0.00 0.00 0.00 82 984.8
20260905124103 26 225 4.8 9.7 0.00 0.00 0.00 83 984.9
20260905123602 26 226 3.2 4.8 0.00 0.00 0.00 84 985.1
20260905122602 25 201 3.2 8.0 0.00 0.00 0.00 85 985.3
20260905122102 25 176 3.2 8.0 0.00 0.00 0.00 86 985.5
20260905121102 25 0 0.0 3.2 0.00 0.00 0.00 86 985.5
20260905120603 25 221 0.0 3.2 0.00 0.00 0.00 86 985.5
20260905115603 25 250 0.0 3.2 0.00 0.00 0.00 85 985.3
20260905115103 25 259 1.6 4.8 0.00 0.00 0.00 85 985.3
20260905114602 24 223 3.2 4.8 0.00 0.00 0.00 86 985.5
20260905114103 24 219 3.2 4.8 0.00 0.00 0.00 87 985.7
20260905113603 24 238 1.6 3.2 0.00 0.00 0.00 87 985.7
20260905113102 24 314 0.0 1.6 0.00 0.00 0.00 87 985.6
20260905112603 24 0 0.0 1.6 0.00 0.00 0.00 87 985.6
20260905112102 24 0 0.0 0.0 0.00 0.00 0.00 87 985.6
20260905111603 25 0 0.0 0.0 0.00 0.00 0.00 86 985.6
20260905111103 25 0 0.0 0.0 0.00 0.00 0.00 86 985.5
20260905110603 25 0 0.0 1.6 0.00 0.00 0.00 86 985.3
20260905105603 25 295 0.0 3.2 0.00 0.00 0.00 86 985.2
20260905105103 25 247 3.2 4.8 0.00 0.00 0.00 85 985.1
20260905104602 25 249 3.2 4.8 0.00 0.00 0.00 85 985.2
20260905104103 26 244 1.6 4.8 0.00 0.00 0.00 85 985.1
20260905103603 25 248 3.2 8.0 0.00 0.00 0.00 85 985.1
20260905103103 25 232 4.8 8.0 0.00 0.00 0.00 85 985.1
20260905102603 25 231 4.8 11.3 0.00 0.00 0.00 85 985.2
20260905102103 25 222 4.8 9.7 0.00 0.00 0.00 86 985.4
20260905101603 25 213 4.8 9.7 0.00 0.00 0.00 86 985.5
20260905100603 24 256 1.6 3.2 0.00 0.00 0.00 88 985.7
20260905095602 24 0 0.0 3.2 0.00 0.00 0.00 88 985.8
20260905094603 23 233 1.6 3.2 0.00 0.00 0.00 88 985.9
20260905094103 23 290 0.0 3.2 0.00 0.00 0.00 88 985.9
20260905093103 24 0 0.0 0.0 0.00 0.00 0.00 88 985.8
20260905092103 24 0 0.0 1.6 0.00 0.00 0.00 88 985.8
20260905091603 24 304 1.6 3.2 0.00 0.00 0.00 88 985.8
20260905091103 24 0 0.0 1.6 0.00 0.00 0.00 87 985.6
20260905090603 24 0 0.0 1.6 0.00 0.00 0.00 87 985.7
20260905090103 24 0 0.0 0.0 0.00 0.00 0.00 87 985.6
20260905085602 25 0 0.0 0.0 0.00 0.00 0.00 87 985.5
20260905084603 25 0 0.0 1.6 0.00 0.00 0.00 86 985.2
20260905084103 25 334 0.0 1.6 0.00 0.00 0.00 86 985.1
20260905083603 25 0 0.0 1.6 0.00 0.00 0.00 86 985.0
20260905083103 25 352 1.6 4.8 0.00 0.00 0.00 86 984.9
20260905082604 25 206 3.2 8.0 0.00 0.00 0.00 86 985.0
20260905075603 25 292 1.6 3.2 0.00 0.00 0.00 87 985.3
20260905075103 25 275 1.6 3.2 0.00 0.00 0.00 87 985.2
20260905074603 25 305 1.6 4.8 0.00 0.00 0.00 87 985.0
20260905074103 25 295 1.6 4.8 0.00 0.00 0.00 86 984.9
20260905073603 25 240 3.2 8.0 0.00 0.00 0.00 87 985.0
20260905073103 25 228 3.2 4.8 0.00 0.00 0.00 88 985.2
20260905072604 25 324 1.6 3.2 0.00 0.00 0.00 87 985.3
20260905072103 25 350 0.0 1.6 0.00 0.00 0.00 88 985.3
20260905071603 25 346 0.0 1.6 0.00 0.00 0.00 88 985.5
20260905071104 25 281 1.6 3.2 0.00 0.00 0.00 88 985.5
20260905070104 25 274 1.6 1.6 0.00 0.00 0.00 88 985.4
20260905065603 25 321 1.6 3.2 0.00 0.00 0.00 87 985.5
20260905065103 25 257 1.6 3.2 0.00 0.00 0.00 88 985.4
20260905064603 25 245 1.6 3.2 0.00 0.00 0.00 88 985.5
20260905064103 25 263 1.6 3.2 0.00 0.00 0.00 88 985.6
20260905063604 25 263 1.6 3.2 0.00 0.00 0.00 88 985.7
20260905063104 25 275 1.6 3.2 0.00 0.00 0.00 87 985.7
20260905062603 25 358 0.0 1.6 0.00 0.00 0.00 87 985.7
20260905062103 25 320 0.0 1.6 0.00 0.00 0.00 88 985.7
20260905061603 25 302 0.0 3.2 0.00 0.00 0.00 88 985.7
20260905061104 25 346 0.0 1.6 0.00 0.00 0.00 87 985.8
20260905060603 25 0 0.0 0.0 0.00 0.00 0.00 87 985.8
20260905055604 25 261 0.0 1.6 0.00 0.00 0.00 88 985.6
20260905055103 25 0 0.0 0.0 0.00 0.00 0.00 87 985.8
20260905054603 25 0 0.0 0.0 0.00 0.00 0.00 87 985.7
20260905054103 25 0 0.0 0.0 0.00 0.00 0.00 87 985.6
20260905053603 25 316 0.0 1.6 0.00 0.00 0.00 87 985.7
20260905053103 25 0 0.0 0.0 0.00 0.00 0.00 87 985.7
20260905052604 25 0 0.0 1.6 0.00 0.00 0.00 87 985.6
20260905051603 25 263 1.6 3.2 0.00 0.00 0.00 87 985.5
20260905051104 25 270 0.0 1.6 0.00 0.00 0.00 87 985.5
20260905050103 25 250 1.6 3.2 0.00 0.00 0.00 87 985.5
20260905045604 25 266 1.6 3.2 0.00 0.00 0.00 87 985.6
20260905044603 25 349 0.0 1.6 0.00 0.00 0.00 87 985.6
20260905044104 25 339 0.0 1.6 0.00 0.00 0.00 87 985.8
20260905043104 25 0 0.0 0.0 0.00 0.00 0.00 87 985.7
20260905042604 25 0 0.0 0.0 0.00 0.00 0.00 87 985.6
20260905042104 26 0 0.0 1.6 0.00 0.00 0.00 87 985.6
20260905041603 26 0 0.0 0.0 0.00 0.00 0.00 86 985.5
20260905041104 26 346 0.0 1.6 0.00 0.00 0.00 87 985.3
20260905040603 26 314 0.0 1.6 0.00 0.00 0.00 87 985.5
20260905040104 26 0 0.0 0.0 0.00 0.00 0.00 87 985.5
20260905035607 26 0 0.0 0.0 0.00 0.00 0.00 86 985.4
20260905035103 26 281 0.0 3.2 0.00 0.00 0.00 86 985.2
20260905034604 26 0 0.0 0.0 0.00 0.00 0.00 86 985.2
20260905034104 26 0 0.0 0.0 0.00 0.00 0.00 86 985.2
20260905033104 26 262 0.0 3.2 0.00 0.00 0.00 86 985.2
20260905032604 26 0 0.0 1.6 0.00 0.00 0.00 86 985.3
20260905032104 26 0 0.0 1.6 0.00 0.00 0.00 86 985.1
20260905031604 26 307 0.0 1.6 0.00 0.00 0.00 86 985.2
20260905031104 26 264 0.0 1.6 0.00 0.00 0.00 86 985.3
20260905030604 26 292 1.6 1.6 0.00 0.00 0.00 86 985.2
20260905030104 26 318 0.0 1.6 0.00 0.00 0.00 86 985.0
20260905025604 26 358 0.0 0.0 0.00 0.00 0.00 86 985.2
20260905025104 26 0 0.0 1.6 0.00 0.00 0.00 86 985.2
20260905024604 26 315 0.0 1.6 0.00 0.00 0.00 86 985.1
20260905024104 26 0 0.0 1.6 0.00 0.00 0.00 86 985.1
20260905023104 27 349 0.0 1.6 0.00 0.00 0.00 86 984.9
20260905022603 27 0 0.0 1.6 0.00 0.00 0.00 86 985.0
20260905022104 27 0 0.0 0.0 0.00 0.00 0.00 86 985.0
20260905021604 27 0 0.0 0.0 0.00 0.00 0.00 86 984.9
20260905021104 27 0 0.0 1.6 0.00 0.00 0.00 85 984.8
20260905020604 27 298 0.0 1.6 0.00 0.00 0.00 85 984.9
20260905020104 27 0 0.0 0.0 0.00 0.00 0.00 85 984.8
20260905015604 27 0 0.0 0.0 0.00 0.00 0.00 85 984.7
20260905015101 27 0 0.0 0.0 0.00 0.00 0.00 85 984.6
20260905014601 27 353 0.0 1.6 0.00 0.00 0.00 85 984.3
20260905014101 27 0 0.0 1.6 0.00 0.00 0.00 85 984.4
20260905013601 28 0 0.0 0.0 0.00 0.00 0.00 85 984.4
20260905013101 28 0 0.0 1.6 0.00 0.00 0.00 84 984.1
20260905012101 28 309 0.0 1.6 0.00 0.00 0.00 84 984.0
20260905011600 28 0 1.6 3.2 0.00 0.00 0.00 83 983.9
20260905011101 28 200 1.6 3.2 0.00 0.00 0.00 83 983.9
20260905005601 29 246 1.6 3.2 0.00 0.00 0.00 82 983.7
20260905005101 29 315 0.0 3.2 0.00 0.00 0.00 82 983.6
20260905004602 30 0 0.0 1.6 0.00 0.00 0.00 81 983.5